TimeCST,TemperatureF,Dew PointF,Humidity,Sea Level PressureIn,VisibilityMPH,Wind Direction,Wind SpeedMPH,Gust SpeedMPH,PrecipitationIn,Events,Conditions,WindDirDegrees,DateUTC
12:52 AM,12.0,9.0,88,30.05,8.0,SE,11.5,-,N/A,,Overcast,130,2014-02-16 06:52:00
1:40 AM,12.9,10.0,88,29.90,4.0,SSE,8.1,-,N/A,,Overcast,150,2014-02-16 07:40:00
1:52 AM,12.9,10.0,88,30.01,5.0,SE,11.5,17.3,N/A,,Overcast,140,2014-02-16 07:52:00
2:11 AM,12.9,10.0,88,29.87,7.0,SE,11.5,-,N/A,,Overcast,130,2014-02-16 08:11:00
2:52 AM,12.9,10.0,88,29.96,5.0,SE,8.1,-,N/A,,Overcast,130,2014-02-16 08:52:00
3:52 AM,14.0,10.9,88,29.91,3.0,ESE,9.2,-,N/A,,Overcast,120,2014-02-16 09:52:00
4:52 AM,15.1,10.9,84,29.87,8.0,ESE,11.5,18.4,N/A,,Overcast,120,2014-02-16 10:52:00
5:52 AM,16.0,12.0,84,29.84,7.0,SE,10.4,-,N/A,,Overcast,130,2014-02-16 11:52:00
6:18 AM,16.0,12.0,84,29.71,10.0,SE,10.4,-,N/A,,Overcast,130,2014-02-16 12:18:00
6:52 AM,17.1,12.0,81,29.81,10.0,SE,13.8,-,N/A,,Overcast,140,2014-02-16 12:52:00
7:26 AM,18.0,12.9,81,29.65,10.0,SE,13.8,21.9,N/A,,Overcast,130,2014-02-16 13:26:00
7:52 AM,18.0,12.9,81,29.75,10.0,SE,16.1,24.2,N/A,,Overcast,130,2014-02-16 13:52:00
8:52 AM,19.0,14.0,81,29.73,10.0,SE,10.4,17.3,N/A,,Overcast,140,2014-02-16 14:52:00
9:11 AM,19.0,14.0,81,29.61,10.0,SSE,11.5,18.4,N/A,,Overcast,150,2014-02-16 15:11:00
9:52 AM,19.9,14.0,78,29.71,10.0,SSE,12.7,19.6,N/A,,Mostly Cloudy,150,2014-02-16 15:52:00
10:52 AM,21.9,16.0,78,29.68,10.0,SSE,13.8,-,N/A,,Overcast,150,2014-02-16 16:52:00
11:52 AM,24.1,16.0,71,29.65,10.0,SSE,8.1,-,N/A,,Overcast,150,2014-02-16 17:52:00
12:52 PM,26.1,17.1,69,29.62,10.0,SSE,15.0,-,N/A,,Overcast,160,2014-02-16 18:52:00
1:52 PM,27.0,19.0,72,29.59,10.0,SSE,10.4,-,N/A,,Overcast,150,2014-02-16 19:52:00
2:49 PM,28.4,21.2,74,29.52,8.0,SSE,5.8,-,0.01,Rain,Light Freezing Rain,160,2014-02-16 20:49:00
2:52 PM,28.0,21.0,75,29.61,7.0,SSE,5.8,-,0.01,Rain,Light Freezing Rain,160,2014-02-16 20:52:00
3:20 PM,28.0,21.9,78,29.52,10.0,SSE,8.1,-,0.00,,Overcast,160,2014-02-16 21:20:00
3:52 PM,27.0,21.9,81,29.62,6.0,SSE,6.9,-,0.01,Snow,Light Snow,160,2014-02-16 21:52:00
4:06 PM,27.0,21.9,81,29.53,1.8,SSE,6.9,-,0.00,Snow,Light Snow,160,2014-02-16 22:06:00
4:13 PM,26.1,21.9,84,29.54,0.8,SSE,6.9,-,0.00,Snow,Light Snow,160,2014-02-16 22:13:00
4:43 PM,26.1,24.1,92,29.55,1.8,Variable,4.6,-,0.04,Snow,Light Snow,0,2014-02-16 22:43:00
4:45 PM,26.1,24.1,92,29.55,3.0,Variable,4.6,-,0.04,Snow,Light Snow,0,2014-02-16 22:45:00
4:52 PM,26.1,24.1,92,29.65,5.0,Variable,3.5,-,0.04,Snow,Light Snow,0,2014-02-16 22:52:00
4:57 PM,26.1,24.1,92,29.56,6.0,SSW,5.8,-,0.00,,Overcast,200,2014-02-16 22:57:00
5:15 PM,27.0,24.1,89,29.57,1.8,South,3.5,-,0.00,Snow,Light Snow,170,2014-02-16 23:15:00
5:39 PM,27.0,25.0,92,29.58,0.8,Variable,3.5,-,0.01,Snow,Light Snow,0,2014-02-16 23:39:00
5:47 PM,27.0,25.0,92,29.56,2.0,SE,8.1,-,0.01,Snow,Light Snow,130,2014-02-16 23:47:00
5:52 PM,27.0,25.0,92,29.65,5.0,ESE,6.9,-,0.01,Snow,Light Snow,120,2014-02-16 23:52:00
6:18 PM,28.9,26.1,89,29.60,1.8,WSW,8.1,-,0.00,Snow,Light Snow,250,2014-02-17 00:18:00
6:31 PM,28.9,26.1,89,29.57,3.0,South,3.5,-,0.00,Snow,Light Snow,170,2014-02-17 00:31:00
6:52 PM,28.9,26.1,89,29.66,9.0,SSW,3.5,-,0.00,,Overcast,210,2014-02-17 00:52:00
7:52 PM,28.0,26.1,92,29.67,8.0,Calm,Calm,-,N/A,,Mostly Cloudy,0,2014-02-17 01:52:00
8:52 PM,28.9,27.0,92,29.69,10.0,WSW,6.9,-,N/A,,Clear,240,2014-02-17 02:52:00
9:52 PM,28.0,24.1,85,29.70,10.0,WSW,8.1,-,N/A,,Partly Cloudy,250,2014-02-17 03:52:00
10:52 PM,34.0,24.1,67,29.70,10.0,West,11.5,-,N/A,,Clear,270,2014-02-17 04:52:00
11:52 PM,33.1,21.9,64,29.71,10.0,West,16.1,-,N/A,,Clear,270,2014-02-17 05:52:00